Time,TemperatureF,DewpointF,PressureIn,WindDirection,WindDirectionDegrees,WindSpeedMPH,WindSpeedGustMPH,Humidity,HourlyPrecipIn,Conditions,Clouds,dailyrainin,SoftwareType,DateUTC
2013-06-01 00:03:00,73.0,68.0,30.05,SSE,155,0.0,4.0,84,0.00,,,0.00,,2013-06-01 04:03:00,
2013-06-01 00:12:00,73.0,68.0,30.05,SSE,155,0.0,4.0,84,0.00,,,0.00,,2013-06-01 04:12:00,
2013-06-01 00:23:00,73.0,67.0,30.05,SE,132,1.0,4.0,82,0.00,,,0.00,,2013-06-01 04:23:00,
2013-06-01 00:33:00,74.0,68.0,30.06,South,189,3.0,5.0,82,0.00,,,0.00,,2013-06-01 04:33:00,
2013-06-01 00:42:00,74.0,68.0,30.06,South,184,1.0,5.0,81,0.00,,,0.00,,2013-06-01 04:42:00,
2013-06-01 00:53:00,74.0,68.0,30.06,South,184,1.0,5.0,81,0.00,,,0.00,,2013-06-01 04:53:00,
2013-06-01 01:02:00,74.0,67.0,30.05,South,169,4.0,10.0,79,0.00,,,0.00,,2013-06-01 05:02:00,
2013-06-01 01:12:00,74.0,67.0,30.05,South,169,4.0,10.0,79,0.00,,,0.00,,2013-06-01 05:12:00,
2013-06-01 01:22:00,74.0,67.0,30.05,South,169,1.0,8.0,78,0.00,,,0.00,,2013-06-01 05:22:00,
2013-06-01 01:32:00,74.0,67.0,30.05,South,178,1.0,5.0,79,0.00,,,0.00,,2013-06-01 05:32:00,
2013-06-01 01:42:00,73.0,66.0,30.05,South,179,0.0,6.0,79,0.00,,,0.00,,2013-06-01 05:42:00,
2013-06-01 01:52:00,73.0,66.0,30.05,South,179,0.0,6.0,79,0.00,,,0.00,,2013-06-01 05:52:00,
2013-06-01 02:01:00,73.0,66.0,30.05,South,178,0.0,2.0,80,0.00,,,0.00,,2013-06-01 06:01:00,
2013-06-01 02:12:00,73.0,66.0,30.05,South,178,0.0,2.0,80,0.00,,,0.00,,2013-06-01 06:12:00,
2013-06-01 02:22:00,73.0,67.0,30.06,SE,138,0.0,6.0,81,0.00,,,0.00,,2013-06-01 06:22:00,
2013-06-01 02:32:00,72.0,66.0,30.06,SE,138,0.0,0.0,82,0.00,,,0.00,,2013-06-01 06:32:00,
2013-06-01 02:42:00,72.0,66.0,30.06,SE,138,0.0,0.0,82,0.00,,,0.00,,2013-06-01 06:42:00,
2013-06-01 02:52:00,72.0,66.0,30.06,SE,138,0.0,0.0,82,0.00,,,0.00,,2013-06-01 06:52:00,
2013-06-01 03:01:00,71.0,66.0,30.06,SE,138,0.0,0.0,83,0.00,,,0.00,,2013-06-01 07:01:00,
2013-06-01 03:11:00,71.0,66.0,30.06,SE,138,0.0,0.0,83,0.00,,,0.00,,2013-06-01 07:11:00,
2013-06-01 03:22:00,71.0,66.0,30.07,SE,138,0.0,0.0,85,0.00,,,0.00,,2013-06-01 07:22:00,
2013-06-01 03:32:00,70.0,66.0,30.06,SE,138,0.0,1.0,86,0.00,,,0.00,,2013-06-01 07:32:00,
2013-06-01 03:42:00,70.0,66.0,30.07,SE,138,0.0,0.0,87,0.00,,,0.00,,2013-06-01 07:42:00,
2013-06-01 03:52:00,70.0,66.0,30.07,SE,138,0.0,0.0,87,0.00,,,0.00,,2013-06-01 07:52:00,
2013-06-01 04:02:00,70.0,66.0,30.07,SE,138,0.0,0.0,87,0.00,,,0.00,,2013-06-01 08:02:00,
2013-06-01 04:11:00,70.0,66.0,30.07,SE,138,0.0,0.0,87,0.00,,,0.00,,2013-06-01 08:11:00,
2013-06-01 04:22:00,70.0,66.0,30.07,SE,138,0.0,0.0,88,0.00,,,0.00,,2013-06-01 08:22:00,
2013-06-01 04:32:00,69.0,65.0,30.07,SE,138,0.0,0.0,88,0.00,,,0.00,,2013-06-01 08:32:00,
2013-06-01 04:42:00,69.0,65.0,30.07,SE,138,0.0,0.0,88,0.00,,,0.00,,2013-06-01 08:42:00,
2013-06-01 04:52:00,69.0,65.0,30.07,SE,138,0.0,0.0,88,0.00,,,0.00,,2013-06-01 08:52:00,
2013-06-01 05:02:00,69.0,66.0,30.08,SE,138,0.0,0.0,89,0.00,,,0.00,,2013-06-01 09:02:00,
2013-06-01 05:12:00,69.0,66.0,30.08,SE,138,0.0,0.0,89,0.00,,,0.00,,2013-06-01 09:12:00,
2013-06-01 05:22:00,69.0,66.0,30.07,SE,138,0.0,1.0,89,0.00,,,0.00,,2013-06-01 09:22:00,
2013-06-01 05:33:00,69.0,66.0,30.07,SE,138,0.0,1.0,89,0.00,,,0.00,,2013-06-01 09:33:00,
2013-06-01 05:43:00,69.0,66.0,30.07,SE,138,0.0,1.0,89,0.00,,,0.00,,2013-06-01 09:43:00,
2013-06-01 05:53:00,68.0,65.0,30.08,SE,138,0.0,1.0,89,0.00,,,0.00,,2013-06-01 09:53:00,
2013-06-01 06:02:00,68.0,65.0,30.07,SE,138,0.0,1.0,89,0.00,,,0.00,,2013-06-01 10:02:00,
2013-06-01 06:13:00,68.0,65.0,30.07,SE,138,0.0,1.0,89,0.00,,,0.00,,2013-06-01 10:13:00,
2013-06-01 06:22:00,68.0,65.0,30.07,SE,138,0.0,0.0,89,0.00,,,0.00,,2013-06-01 10:22:00,
2013-06-01 06:33:00,68.0,65.0,30.08,SE,138,0.0,1.0,90,0.00,,,0.00,,2013-06-01 10:33:00,
2013-06-01 06:42:00,68.0,65.0,30.08,SE,138,0.0,1.0,90,0.00,,,0.00,,2013-06-01 10:42:00,
2013-06-01 06:52:00,68.0,65.0,30.08,SE,138,0.0,0.0,89,0.00,,,0.00,,2013-06-01 10:52:00,
2013-06-01 07:03:00,67.0,64.0,30.08,SE,138,0.0,2.0,90,0.00,,,0.00,,2013-06-01 11:03:00,
2013-06-01 07:11:00,67.0,64.0,30.08,SE,138,0.0,2.0,90,0.00,,,0.00,,2013-06-01 11:11:00,
2013-06-01 07:22:00,67.0,64.0,30.08,SE,138,0.0,1.0,91,0.00,,,0.00,,2013-06-01 11:22:00,
2013-06-01 07:33:00,67.0,65.0,30.08,SE,138,0.0,1.0,92,0.00,,,0.00,,2013-06-01 11:33:00,
2013-06-01 07:42:00,67.0,65.0,30.08,SE,138,0.0,1.0,92,0.00,,,0.00,,2013-06-01 11:42:00,
2013-06-01 07:52:00,68.0,66.0,30.08,SE,138,1.0,3.0,92,0.00,,,0.00,,2013-06-01 11:52:00,
2013-06-01 08:01:00,68.0,65.0,30.08,SE,138,0.0,1.0,91,0.00,,,0.00,,2013-06-01 12:01:00,
2013-06-01 08:12:00,68.0,65.0,30.08,SE,138,0.0,1.0,91,0.00,,,0.00,,2013-06-01 12:12:00,
2013-06-01 08:22:00,69.0,66.0,30.08,SW,219,0.0,3.0,91,0.00,,,0.00,,2013-06-01 12:22:00,
2013-06-01 08:32:00,69.0,66.0,30.08,West,267,3.0,6.0,90,0.00,,,0.00,,2013-06-01 12:32:00,
2013-06-01 08:42:00,69.0,66.0,30.08,West,267,3.0,6.0,90,0.00,,,0.00,,2013-06-01 12:42:00,
2013-06-01 08:52:00,70.0,67.0,30.08,WSW,250,2.0,6.0,89,0.00,,,0.00,,2013-06-01 12:52:00,
2013-06-01 09:01:00,70.0,66.0,30.08,SW,226,1.0,8.0,87,0.00,,,0.00,,2013-06-01 13:01:00,
2013-06-01 09:12:00,70.0,66.0,30.08,SW,226,1.0,8.0,87,0.00,,,0.00,,2013-06-01 13:12:00,
2013-06-01 09:22:00,71.0,66.0,30.08,SW,225,4.0,10.0,85,0.00,,,0.00,,2013-06-01 13:22:00,
2013-06-01 09:32:00,72.0,67.0,30.08,SSW,201,4.0,8.0,83,0.00,,,0.00,,2013-06-01 13:32:00,
2013-06-01 09:42:00,72.0,67.0,30.08,SSW,201,4.0,8.0,83,0.00,,,0.00,,2013-06-01 13:42:00,
2013-06-01 09:52:00,72.0,66.0,30.08,West,279,4.0,8.0,81,0.00,,,0.00,,2013-06-01 13:52:00,
2013-06-01 10:02:00,73.0,66.0,30.08,WSW,248,4.0,10.0,80,0.00,,,0.00,,2013-06-01 14:02:00,
2013-06-01 10:11:00,73.0,66.0,30.08,WSW,248,4.0,10.0,80,0.00,,,0.00,,2013-06-01 14:11:00,
2013-06-01 10:21:00,74.0,67.0,30.08,South,181,1.0,11.0,78,0.00,,,0.00,,2013-06-01 14:21:00,
2013-06-01 10:32:00,76.0,67.0,30.07,SSW,196,2.0,9.0,74,0.00,,,0.00,,2013-06-01 14:32:00,
2013-06-01 10:42:00,76.0,67.0,30.07,SSW,196,2.0,9.0,74,0.00,,,0.00,,2013-06-01 14:42:00,
2013-06-01 10:52:00,76.0,67.0,30.07,WSW,238,4.0,10.0,73,0.00,,,0.00,,2013-06-01 14:52:00,
2013-06-01 11:02:00,76.0,66.0,30.07,WSW,252,2.0,8.0,72,0.00,,,0.00,,2013-06-01 15:02:00,
2013-06-01 11:11:00,76.0,66.0,30.07,WSW,252,2.0,8.0,72,0.00,,,0.00,,2013-06-01 15:11:00,
2013-06-01 11:22:00,77.0,66.0,30.07,ESE,106,3.0,11.0,68,0.00,,,0.00,,2013-06-01 15:22:00,
2013-06-01 11:33:00,77.0,66.0,30.07,WSW,244,1.0,9.0,68,0.00,,,0.00,,2013-06-01 15:33:00,
2013-06-01 11:43:00,77.0,66.0,30.07,WSW,244,1.0,9.0,68,0.00,,,0.00,,2013-06-01 15:43:00,
2013-06-01 11:53:00,79.0,66.0,30.07,SSW,196,5.0,12.0,65,0.00,,,0.00,,2013-06-01 15:53:00,
2013-06-01 12:03:00,80.0,66.0,30.06,SSW,198,2.0,12.0,63,0.00,,,0.00,,2013-06-01 16:03:00,
2013-06-01 12:12:00,80.0,66.0,30.06,SSW,198,2.0,12.0,63,0.00,,,0.00,,2013-06-01 16:12:00,
2013-06-01 12:23:00,81.0,66.0,30.06,South,190,3.0,10.0,60,0.00,,,0.00,,2013-06-01 16:23:00,
2013-06-01 12:33:00,82.0,66.0,30.06,South,189,3.0,12.0,59,0.00,,,0.00,,2013-06-01 16:33:00,
2013-06-01 12:42:00,82.0,66.0,30.06,South,189,3.0,12.0,59,0.00,,,0.00,,2013-06-01 16:42:00,
2013-06-01 12:52:00,81.0,67.0,30.06,WSW,240,2.0,7.0,62,0.00,,,0.00,,2013-06-01 16:52:00,
2013-06-01 13:02:00,81.0,66.0,30.05,SSW,211,4.0,9.0,61,0.00,,,0.00,,2013-06-01 17:02:00,
2013-06-01 13:12:00,81.0,66.0,30.05,SSW,211,4.0,9.0,61,0.00,,,0.00,,2013-06-01 17:12:00,
2013-06-01 13:22:00,82.0,66.0,30.05,WSW,249,3.0,8.0,59,0.00,,,0.00,,2013-06-01 17:22:00,
2013-06-01 13:32:00,83.0,66.0,30.05,WSW,255,4.0,9.0,56,0.00,,,0.00,,2013-06-01 17:32:00,
2013-06-01 13:42:00,83.0,66.0,30.05,WSW,255,4.0,9.0,56,0.00,,,0.00,,2013-06-01 17:42:00,
2013-06-01 13:52:00,83.0,66.0,30.05,SW,215,4.0,7.0,57,0.00,,,0.00,,2013-06-01 17:52:00,
2013-06-01 14:01:00,82.0,65.0,30.04,SSW,192,6.0,12.0,57,0.00,,,0.00,,2013-06-01 18:01:00,
2013-06-01 14:12:00,82.0,65.0,30.04,SSW,192,6.0,12.0,57,0.00,,,0.00,,2013-06-01 18:12:00,
2013-06-01 14:22:00,83.0,64.0,30.04,South,172,8.0,16.0,53,0.00,,,0.00,,2013-06-01 18:22:00,
2013-06-01 14:32:00,83.0,65.0,30.03,SSW,198,6.0,10.0,54,0.00,,,0.00,,2013-06-01 18:32:00,
2013-06-01 14:42:00,83.0,65.0,30.03,SSW,198,6.0,10.0,54,0.00,,,0.00,,2013-06-01 18:42:00,
2013-06-01 14:52:00,86.0,65.0,30.03,WSW,251,5.0,10.0,49,0.00,,,0.00,,2013-06-01 18:52:00,
2013-06-01 15:02:00,85.0,65.0,30.02,WSW,248,4.0,13.0,52,0.00,,,0.00,,2013-06-01 19:02:00,
2013-06-01 15:11:00,85.0,65.0,30.02,WSW,248,4.0,13.0,52,0.00,,,0.00,,2013-06-01 19:11:00,
2013-06-01 15:21:00,85.0,64.0,30.02,WSW,256,7.0,15.0,50,0.00,,,0.00,,2013-06-01 19:21:00,
2013-06-01 15:32:00,85.0,66.0,30.01,South,184,4.0,11.0,53,0.00,,,0.00,,2013-06-01 19:32:00,
2013-06-01 15:42:00,85.0,66.0,30.01,South,184,4.0,11.0,53,0.00,,,0.00,,2013-06-01 19:42:00,
2013-06-01 15:52:00,87.0,66.0,30.01,WSW,242,4.0,9.0,50,0.00,,,0.00,,2013-06-01 19:52:00,
2013-06-01 16:02:00,85.0,65.0,30.01,South,173,5.0,16.0,52,0.00,,,0.00,,2013-06-01 20:02:00,
2013-06-01 16:12:00,85.0,65.0,30.01,South,173,5.0,16.0,52,0.00,,,0.00,,2013-06-01 20:12:00,
2013-06-01 16:21:00,85.0,66.0,30.00,South,187,4.0,14.0,53,0.00,,,0.00,,2013-06-01 20:21:00,
2013-06-01 16:32:00,84.0,66.0,30.00,SSW,209,3.0,11.0,54,0.00,,,0.00,,2013-06-01 20:32:00,
2013-06-01 16:42:00,84.0,66.0,30.00,SSW,209,3.0,11.0,54,0.00,,,0.00,,2013-06-01 20:42:00,
2013-06-01 16:52:00,84.0,65.0,30.00,SSW,192,6.0,14.0,53,0.00,,,0.00,,2013-06-01 20:52:00,
2013-06-01 17:01:00,85.0,66.0,29.98,South,171,4.0,13.0,53,0.00,,,0.00,,2013-06-01 21:01:00,
2013-06-01 17:12:00,84.0,66.0,29.98,SSW,195,2.0,8.0,54,0.00,,,0.00,,2013-06-01 21:12:00,
2013-06-01 17:22:00,84.0,66.0,29.98,SSW,195,2.0,8.0,54,0.00,,,0.00,,2013-06-01 21:22:00,
2013-06-01 17:33:00,85.0,66.0,29.98,SW,229,5.0,9.0,53,0.00,,,0.00,,2013-06-01 21:33:00,
2013-06-01 17:43:00,85.0,66.0,29.98,SW,229,5.0,9.0,53,0.00,,,0.00,,2013-06-01 21:43:00,
2013-06-01 17:53:00,86.0,66.0,29.98,West,265,4.0,9.0,52,0.00,,,0.00,,2013-06-01 21:53:00,
2013-06-01 18:03:00,87.0,66.0,29.98,WSW,250,3.0,11.0,50,0.00,,,0.00,,2013-06-01 22:03:00,
2013-06-01 18:12:00,87.0,66.0,29.98,WSW,250,3.0,11.0,50,0.00,,,0.00,,2013-06-01 22:12:00,
2013-06-01 18:23:00,87.0,67.0,29.97,SW,215,2.0,10.0,51,0.00,,,0.00,,2013-06-01 22:23:00,
2013-06-01 18:33:00,86.0,66.0,29.97,SSW,192,5.0,9.0,52,0.00,,,0.00,,2013-06-01 22:33:00,
2013-06-01 18:42:00,86.0,66.0,29.97,SSW,192,5.0,9.0,52,0.00,,,0.00,,2013-06-01 22:42:00,
2013-06-01 18:53:00,86.0,66.0,29.96,SSW,199,2.0,11.0,52,0.00,,,0.00,,2013-06-01 22:53:00,
2013-06-01 19:02:00,86.0,66.0,29.96,South,171,4.0,7.0,51,0.00,,,0.00,,2013-06-01 23:02:00,
2013-06-01 19:12:00,86.0,66.0,29.96,South,171,4.0,7.0,51,0.00,,,0.00,,2013-06-01 23:12:00,
2013-06-01 19:22:00,85.0,66.0,29.96,South,189,5.0,7.0,54,0.00,,,0.00,,2013-06-01 23:22:00,
2013-06-01 19:32:00,84.0,66.0,29.96,SSW,195,5.0,8.0,54,0.00,,,0.00,,2013-06-01 23:32:00,
2013-06-01 19:42:00,84.0,66.0,29.96,SSW,195,5.0,8.0,54,0.00,,,0.00,,2013-06-01 23:42:00,
2013-06-01 19:52:00,84.0,67.0,29.96,SSW,193,3.0,8.0,56,0.00,,,0.00,,2013-06-01 23:52:00,
2013-06-01 20:02:00,84.0,68.0,29.95,SW,219,1.0,4.0,58,0.00,,,0.00,,2013-06-02 00:02:00,
2013-06-01 20:11:00,84.0,68.0,29.95,SW,219,1.0,4.0,58,0.00,,,0.00,,2013-06-02 00:11:00,
2013-06-01 20:22:00,83.0,67.0,29.96,South,190,1.0,6.0,59,0.00,,,0.00,,2013-06-02 00:22:00,
2013-06-01 20:32:00,82.0,67.0,29.95,South,190,0.0,3.0,60,0.00,,,0.00,,2013-06-02 00:32:00,
2013-06-01 20:42:00,82.0,67.0,29.95,South,190,0.0,3.0,60,0.00,,,0.00,,2013-06-02 00:42:00,
2013-06-01 20:52:00,82.0,69.0,29.95,South,190,0.0,2.0,66,0.00,,,0.00,,2013-06-02 00:52:00,
2013-06-01 21:01:00,81.0,69.0,29.95,South,190,0.0,0.0,66,0.00,,,0.00,,2013-06-02 01:01:00,
2013-06-01 21:11:00,81.0,69.0,29.95,South,190,0.0,0.0,66,0.00,,,0.00,,2013-06-02 01:11:00,
2013-06-01 21:21:00,79.0,68.0,29.95,South,190,0.0,0.0,70,0.00,,,0.00,,2013-06-02 01:21:00,
2013-06-01 21:32:00,78.0,68.0,29.95,South,190,0.0,0.0,72,0.00,,,0.00,,2013-06-02 01:32:00,
2013-06-01 21:42:00,78.0,68.0,29.95,South,190,0.0,0.0,72,0.00,,,0.00,,2013-06-02 01:42:00,
2013-06-01 21:52:00,76.0,67.0,29.96,South,190,0.0,0.0,75,0.00,,,0.00,,2013-06-02 01:52:00,
2013-06-01 22:02:00,75.0,68.0,29.97,South,190,0.0,1.0,78,0.00,,,0.00,,2013-06-02 02:02:00,
2013-06-01 22:12:00,75.0,68.0,29.97,South,190,0.0,1.0,78,0.00,,,0.00,,2013-06-02 02:12:00,
2013-06-01 22:21:00,74.0,67.0,29.98,South,190,0.0,0.0,80,0.00,,,0.00,,2013-06-02 02:21:00,
2013-06-01 22:32:00,73.0,67.0,29.99,South,190,0.0,0.0,82,0.00,,,0.00,,2013-06-02 02:32:00,
2013-06-01 22:42:00,73.0,67.0,29.99,South,190,0.0,0.0,82,0.00,,,0.00,,2013-06-02 02:42:00,
2013-06-01 22:52:00,73.0,68.0,29.99,South,190,0.0,1.0,84,0.00,,,0.00,,2013-06-02 02:52:00,
2013-06-01 23:02:00,72.0,67.0,29.99,South,190,0.0,0.0,84,0.00,,,0.00,,2013-06-02 03:02:00,
2013-06-01 23:11:00,72.0,67.0,29.99,South,190,0.0,0.0,84,0.00,,,0.00,,2013-06-02 03:11:00,
2013-06-01 23:21:00,72.0,67.0,29.99,South,190,0.0,0.0,85,0.00,,,0.00,,2013-06-02 03:21:00,
2013-06-01 23:33:00,72.0,67.0,29.98,South,190,0.0,0.0,85,0.00,,,0.00,,2013-06-02 03:33:00,
2013-06-01 23:43:00,72.0,67.0,29.98,South,190,0.0,0.0,85,0.00,,,0.00,,2013-06-02 03:43:00,
2013-06-01 23:53:00,71.0,66.0,29.99,SSE,150,1.0,3.0,84,0.00,,,0.00,,2013-06-02 03:53:00,